Liste des engagé(e)s
Classement
PDF
   
         
   
 
Pos N° Nom Prénom Pays Temps Ecart Pl. Cat. Pl. Sexe Club
1 967 MATHIEU THIBAULT 00:15:14 1 MI 1 M JSP LA VALLIERE
2 955 GLAIZAL ANTOINE 00:15:16 02 2 MI 2 M JSP LA DOMBES
3 942 FERREIRA LEO 00:15:33 19 3 MI 3 M JSP HAUTE VALSERINE
4 993 AUGER POLIGNE BENJAMIN 00:16:00 46 4 MI 4 M JSP NORD EST GESSIEN
5 895 SLIMANE BILAL 00:16:00 46 5 MI 5 M JSP BELLEGARDE
6 931 MOLLION ROMARIC 00:16:25 01:11 6 MI 6 M JSP GARNERANS
7 980 ERNOULT ALEXANDRE 00:16:33 01:19 7 MI 7 M JSP MONTLUEL
8 932 VOLLET ANTONIN 00:16:41 01:27 8 MI 8 M JSP GARNERANS
9 1010 PRUNIER TOM 00:16:47 01:33 9 MI 9 M JSP PONCIN
10 914 ZUCCALI LUCAS 00:16:47 01:33 10 MI 10 M JSP CULOZ
11 1015 ROTHEVAL WILLIAM 00:17:01 01:47 11 MI 11 M JSP PONT DE VAUX
12 887 BUATHIER MAXIME 00:17:05 01:51 12 MI 12 M JSP AMBERIEU EN BUGE
13 889 VARVARANDE MATHIS 00:17:10 01:56 13 MI 13 M JSP AMBERIEU EN BUGE
14 920 GAY THEOPHILE 00:17:10 01:56 14 MI 14 M JSP FORT L'ECLUSE
15 910 PERNET LEON 00:17:21 02:07 15 MI 15 M JSP CULOZ
16 969 SIMONIN ARTHUR 00:17:30 02:16 16 MI 16 M JSP LA VALLIERE
17 1047 SUYKERBUYK TIM 00:17:35 02:21 17 MI 17 M JSP THOIRY SUD GESSI
18 956 MANDRILLON JOSHUA 00:17:37 02:23 18 MI 18 M JSP LA DOMBES
19 958 PAYET REMY 00:17:45 02:31 19 MI 19 M JSP LA DOMBES
20 908 COLLIGNON MAXIME 00:17:46 02:32 20 MI 20 M JSP CULOZ
21 1041 BARBET CLEMENT 00:17:48 02:34 21 MI 21 M JSP THOIRY SUD GESSI
22 945 BALLAND DAMIEN 00:17:50 02:36 22 MI 22 M JSP HAUTEVILLE
23 952 PELILLO THEO 00:17:51 02:37 23 MI 23 M JSP HAUTEVILLE
24 893 NEIVA TINO 00:17:52 02:38 24 MI 24 M JSP BELLEGARDE
25 902 PANCHOT CLEMENT 00:17:53 02:39 25 MI 25 M JSP COLIGNY
26 1006 SERGENT ROMAIN 00:18:10 02:56 26 MI 26 M JSP PLAINE TONIQUE
27 984 RIVAT Loan 00:18:11 02:57 27 MI 27 M JSP MONTLUEL
28 1042 BRIGIDO LUCAS 00:18:11 02:57 28 MI 28 M JSP THOIRY SUD GESSI
29 897 DARCHY JEAN-BASTIEN 00:18:14 03:00 29 MI 29 M JSP BORDS DE L'AIN
30 982 MARTINS SACHA 00:18:17 03:03 30 MI 30 M JSP MONTLUEL
31 968 RETIF FABIAN 00:18:17 03:03 31 MI 31 M JSP LA VALLIERE
32 963 BONNE Romaric 00:18:18 03:04 32 MI 32 M JSP LA VALLIERE
33 949 GARNIER DAMIEN 00:18:23 03:09 33 MI 33 M JSP HAUTEVILLE
34 1023 LAVIGNE JULIEN 00:18:26 03:12 34 MI 34 M JSP ST ANDRE DE CORC
35 972 BRANDELET THOMAS 00:18:30 03:16 35 MI 35 M JSP MIRIBEL
36 916 CHARLERY ETHAN 00:18:30 03:16 36 MI 36 M JSP FORT L'ECLUSE
37 1049 REDJEM NOAH 00:18:31 03:17 37 MI 37 M JSP VAL DE SAONE SUD
38 1040 VINCENT ANTHONY 00:18:32 03:18 38 MI 38 M JSP ST SORLIN/LAGNIE
39 1045 MOSSU YANN 00:18:36 03:22 39 MI 39 M JSP THOIRY SUD GESSI
40 1021 VEUILLET ELLIOT 00:18:38 03:24 40 MI 40 M JSP PONT DE VEYLE
41 1046 ROCHEFEUILLE THIBAULT 00:18:39 03:25 41 MI 41 M JSP THOIRY SUD GESSI
42 1048 TEISSIER YANNICK 00:18:55 03:41 42 MI 42 M JSP THOIRY SUD GESSI
43 996 HUBER ANTOINE 00:18:59 03:45 43 MI 43 M JSP NORD EST GESSIEN
44 989 DUNAND MAXIM 00:19:03 03:49 44 MI 44 M JSP MONTMERLE SUR SA
45 1012 AULEN ETIENNE 00:19:04 03:50 45 MI 45 M JSP PONT DE VAUX
46 947 CHASTAN SAMUEL 00:19:05 03:51 46 MI 46 M JSP HAUTEVILLE
47 922 MALANDAIN ANAKIN 00:19:06 03:52 47 MI 47 M JSP FORT L'ECLUSE
48 1013 COMTET EMILIEN 00:19:07 03:53 48 MI 48 M JSP PONT DE VAUX
49 987 BONNOT BASTIEN 00:19:12 03:58 49 MI 49 M JSP MONTMERLE SUR SA
50 1001 COLAS ALEXIS 00:19:13 03:59 50 MI 50 M JSP PLAINE TONIQUE
51 1022 GUILLOT-COMTET LUCAS 00:19:14 04:00 51 MI 51 M JSP ST ANDRE DE CORC
52 925 TURCHET FLORIAN 00:19:26 04:12 52 MI 52 M JSP FORT L'ECLUSE
53 901 NICOLAS BAPTISTE 00:19:27 04:13 53 MI 53 M JSP COLIGNY
54 983 OPISSO ENZO 00:19:32 04:18 54 MI 54 M JSP MONTLUEL
55 899 GERBER DAVID 00:19:40 04:26 55 MI 55 M JSP COLIGNY
56 1025 GONNEAU ALEXANDRE 00:19:43 04:29 56 MI 56 M JSP ST MAURICE
57 1028 MIRA DYLAN 00:19:45 04:31 57 MI 57 M JSP ST MAURICE
58 965 GOUIN FLORIAN 00:19:48 04:34 58 MI 58 M JSP LA VALLIERE
59 975 PAGET KYLLIAN 00:19:49 04:35 59 MI 59 M JSP MIRIBEL
60 938 RAMEY ELIE 00:19:52 04:38 60 MI 60 M JSP HAUT BUGEY
61 917 CHEVANCE QUENTIN 00:19:53 04:39 61 MI 61 M JSP FORT L'ECLUSE
62 1034 JALUZOT ALEXANDRE 00:19:53 04:39 62 MI 62 M JSP ST SORLIN/LAGNIE
63 896 CHEVANU THOMAS 00:19:53 04:39 63 MI 63 M JSP BORDS DE L'AIN
64 973 DEL AGUILA CALISTO 00:20:03 04:49 64 MI 64 M JSP MIRIBEL
65 986 BERTRAND ENZO 00:20:07 04:53 65 MI 65 M JSP MONTMERLE SUR SA
66 1016 DAVID ERWAN 00:20:08 04:54 66 MI 66 M JSP PONT DE VEYLE
67 921 GOTTLE DIMITRI 00:20:09 04:55 67 MI 67 M JSP FORT L'ECLUSE
68 994 BACHMANN KAREL 00:20:12 04:58 68 MI 68 M JSP NORD EST GESSIEN
69 1019 MARTINEZ NOAH 00:20:13 04:59 69 MI 69 M JSP PONT DE VEYLE
70 1000 BOYAT LUBIN 00:20:15 05:01 70 MI 70 M JSP PLAINE TONIQUE
71 924 SIGAUD MAXIME 00:20:16 05:02 71 MI 71 M JSP FORT L'ECLUSE
72 1004 PERRIN JULES 00:20:18 05:04 72 MI 72 M JSP PLAINE TONIQUE
73 1005 PIN FLAVIEN 00:20:19 05:05 73 MI 73 M JSP PLAINE TONIQUE
74 961 BALCONI ENZO 00:20:24 05:10 74 MI 74 M JSP LA VALLIERE
75 1009 MERMET LUCAS 00:20:24 05:10 75 MI 75 M JSP PONCIN
76 971 BACCONNIER LUKA 00:20:26 05:12 76 MI 76 M JSP MIRIBEL
77 933 HENRIQUES DOS REIS NOLANNE 00:20:27 05:13 77 MI 77 M JSP HAUT BUGEY
78 976 RAMIREZ AURELIEN 00:20:27 05:13 78 MI 78 M JSP MIRIBEL
79 1031 BERTRAND GAEL 00:20:28 05:14 79 MI 79 M JSP ST SORLIN/LAGNIE
80 995 HOSPITALIER THIBAULT 00:20:35 05:21 80 MI 80 M JSP NORD EST GESSIEN
81 906 VANDEWALLE RYAN 00:20:38 05:24 81 MI 81 M JSP COLIGNY
82 960 AVINIERE PABLO 00:20:39 05:25 82 MI 82 M JSP LA VALLIERE
83 904 PERRAUD TYBO 00:20:41 05:27 83 MI 83 M JSP COLIGNY
84 940 SUVAY HASAN 00:20:44 05:30 84 MI 84 M JSP HAUT BUGEY
85 1011 ROLAND-CARVALHOSA THIBO 00:20:51 05:37 85 MI 85 M JSP PONCIN
86 1024 EL ABED MOHAMED ENINE 00:20:53 05:39 86 MI 86 M JSP ST MAURICE
87 1036 MOOG NICOLAS 00:20:59 05:45 87 MI 87 M JSP ST SORLIN/LAGNIE
88 1007 BROCARD JORIS 00:21:21 06:07 88 MI 88 M JSP PONCIN
89 992 MAUPPIN VINCENT 00:21:29 06:15 89 MI 89 M JSP MONTMERLE SUR SA
90 977 SALAMON ARTHUR 00:21:35 06:21 90 MI 90 M JSP MIRIBEL
91 936 OLIVIER ADRIEN 00:21:35 06:21 91 MI 91 M JSP HAUT BUGEY
92 974 MONDINO FABIO 00:21:43 06:29 92 MI 92 M JSP MIRIBEL
93 934 MARCOVECCHIO LORIS 00:21:45 06:31 93 MI 93 M JSP HAUT BUGEY
94 1003 MERLIN LUCAS 00:21:46 06:32 94 MI 94 M JSP PLAINE TONIQUE
95 990 FOURNAISE VALENTIN 00:21:46 06:32 95 MI 95 M JSP MONTMERLE SUR SA
96 979 BEN NACEUR YANIS 00:21:47 06:33 96 MI 96 M JSP MONTLUEL
97 923 ROLANDEZ MAXIME 00:21:54 06:40 97 MI 97 M JSP FORT L'ECLUSE
98 918 DELACHAT THEO 00:21:58 06:44 98 MI 98 M JSP FORT L'ECLUSE
99 966 MAGNIN AUGUSTE 00:22:04 06:50 99 MI 99 M JSP LA VALLIERE
100 981 GONCALVES Miguel 00:22:05 06:51 100 MI 100 M JSP MONTLUEL
101 1035 LAIEB YASSINE 00:22:07 06:53 101 MI 101 M JSP ST SORLIN/LAGNIE
102 898 PIVOT OLIVIER 00:22:24 07:10 102 MI 102 M JSP BORDS DE L'AIN
103 891 ESTEVES BASTIEN 00:22:29 07:15 103 MI 103 M JSP BELLEGARDE
104 1008 JARJAVAL TERRY 00:22:37 07:23 104 MI 104 M JSP PONCIN
105 930 MAGALHAES LUCA 00:22:39 07:25 105 MI 105 M JSP GARNERANS
106 1038 PRAT LORIS 00:22:46 07:32 106 MI 106 M JSP ST SORLIN/LAGNIE
107 919 EL HAJJ MOHAMED 00:22:59 07:45 107 MI 107 M JSP FORT L'ECLUSE
108 939 SERVIGNE THIBAULT 00:23:01 07:47 108 MI 108 M JSP HAUT BUGEY
109 911 ROUGER SAMUEL 00:23:02 07:48 109 MI 109 M JSP CULOZ
110 937 PARIS MICHEL 00:23:27 08:13 110 MI 110 M JSP HAUT BUGEY
111 915 AMMARI VICTOR 00:23:33 08:19 111 MI 111 M JSP FORT L'ECLUSE
112 978 VERGNIEUX DORIAN 00:23:36 08:22 112 MI 112 M JSP MIRIBEL
113 913 SCHONE MATTEO 00:24:01 08:47 113 MI 113 M JSP CULOZ
114 1018 HUERTA HULEUX MAUDRIC 00:24:16 09:02 114 MI 114 M JSP PONT DE VEYLE
115 1030 ALVES Pierre 00:24:19 09:05 115 MI 115 M JSP ST SORLIN/LAGNIE
116 991 JAMBON MAXENCE 00:24:21 09:07 116 MI 116 M JSP MONTMERLE SUR SA
117 935 MARTIN YANNIS 00:24:42 09:28 117 MI 117 M JSP HAUT BUGEY
118 907 VIOLY FEVRE AMBROISE 00:24:47 09:33 118 MI 118 M JSP COLIGNY
119 1029 SIRE CLEMENT 00:25:28 10:14 119 MI 119 M JSP ST MAURICE
120 943 MULOT AYMERIC 00:26:13 10:59 120 MI 120 M JSP HAUTE VALSERINE
121 912 ROUSSEL MARTIN 00:26:15 11:01 121 MI 121 M JSP CULOZ
122 928 LAMIRAL MELVYN 00:26:28 11:14 122 MI 122 M JSP GARNERANS
123 1039 TITOULET GABIN 00:26:37 11:23 123 MI 123 M JSP ST SORLIN/LAGNIE
124 970 VILLARD FAUSTIN 00:26:40 11:26 124 MI 124 M JSP LA VALLIERE
125 1017 GONNARD BOURGEOIS VICTOR 00:26:41 11:27 125 MI 125 M JSP PONT DE VEYLE
126 951 MICHELI RAPHAEL 00:26:49 11:35 126 MI 126 M JSP HAUTEVILLE
127 950 GOJON YOAN 00:26:49 11:35 127 MI 127 M JSP HAUTEVILLE
128 905 RENOUD TOM 00:26:58 11:44 128 MI 128 M JSP COLIGNY
129 999 BLIN LORENZO 00:27:30 12:16 129 MI 129 M JSP PLAINE TONIQUE
130 988 CHAPOLLET QUENTIN 00:28:48 13:34 130 MI 130 M JSP MONTMERLE SUR SA
131 890 EMAIN LUCAS 00:30:15 15:01 131 MI 131 M JSP BELLEGARDE
132 1026 KERMOUCHE ISSRA 00:33:58 18:44 132 MI 132 M JSP ST MAURICE
  CROSS 01 POMPIERS - MINIMES G- ChronomĂ©trage Perf Event 2019
 
Nombre ou lettres (3 minimum)
Classement    
Filtre :
Rang :